Date String (YYYY-MM-DD hh:mm:ss) UTC,Instrument flags,absolute air pressure of the measurement (hPa),sample flow rate (lpm),inlet stack bypass flow (lpm),air temperature of the measurement (°C),ambient temperature measured by the external sensor (°C),aerosol sample conditioner tube jacket temperature (°C),OPC LED temperature (°C),internal box temperature (°C),relative humidity of the measurement (%),span deviation,mass concentration of particles derived from Lorenz-Mie calculation of OPC scattering (μg/m³),mass concentration of particles derived from Lorenz-Mie calculation of OPC scattering (μg/m³),mass concentration of particles derived from Lorenz-Mie calculation of OPC scattering (μg/m³)
DateTimeUTC,F1_M11,P_M11,Q1_M11,Q2_M11,T1_M11,T2_M11,T3_M11,T4_M11,T5_M11,U1_M11,ZSPAN_M11,X0_M11,X2_M11,X1_M11
2024-01-03 07:00:00,SystemResetWarning,0829.7,5.00,000.00,021.3,020.2,000.0,029.7,022.7,12.2,0000.0,0008.56,0004.41,0004.05
2024-01-03 07:01:00,SystemResetWarning,0829.7,5.01,000.00,021.3,020.2,000.0,029.7,022.7,12.5,0000.0,0008.50,0004.39,0004.02
2024-01-03 07:02:00,SystemResetWarning,0829.7,5.01,000.00,021.3,020.1,000.0,029.7,022.7,12.7,0000.0,0008.52,0004.46,0004.07
2024-01-03 07:03:00,SystemResetWarning,0829.7,5.00,000.00,021.3,020.1,000.0,029.7,022.7,13.0,0000.0,0008.53,0004.53,0004.15
2024-01-03 07:04:00,SystemResetWarning,0829.7,5.00,000.00,021.3,020.1,000.0,029.7,022.7,13.4,0000.0,0008.69,0004.65,0004.25
2024-01-03 07:05:00,SystemResetWarning,0829.7,4.99,000.00,021.3,020.1,000.0,029.7,022.7,13.3,0000.0,0008.77,0004.75,0004.35
2024-01-03 07:06:00,SystemResetWarning,0829.7,4.99,000.00,021.3,020.1,000.0,029.7,022.6,13.0,0000.0,0008.77,0004.85,0004.43
2024-01-03 07:07:00,SystemResetWarning,0829.7,5.00,000.00,021.3,020.1,000.0,029.7,022.6,12.8,0000.0,0009.13,0005.05,0004.65
2024-01-03 07:08:00,SystemResetWarning,0829.7,5.00,000.00,021.3,020.1,000.0,029.7,022.6,12.6,0000.0,0009.55,0005.31,0004.88
2024-01-03 07:09:00,SystemResetWarning,0829.7,5.00,000.00,021.3,020.1,000.0,029.6,022.6,12.5,0000.0,0010.61,0005.57,0005.09
2024-01-03 07:10:00,SystemResetWarning,0829.7,5.00,000.00,021.3,020.1,000.0,029.6,022.6,12.5,0000.0,0011.13,0005.79,0005.29
2024-01-03 07:11:00,SystemResetWarning,0829.7,5.00,000.00,021.2,020.1,000.0,029.6,022.6,12.4,0000.0,0011.12,0005.85,0005.34
2024-01-03 07:12:00,SystemResetWarning,0829.7,5.00,000.00,021.2,020.1,000.0,029.6,022.6,12.5,0000.0,0011.04,0005.85,0005.35
2024-01-03 07:13:00,SystemResetWarning,0829.7,5.00,000.00,021.2,020.1,000.0,029.6,022.6,12.5,0000.0,0011.17,0005.89,0005.39
2024-01-03 07:14:00,SystemResetWarning,0829.7,5.01,000.00,021.2,020.1,000.0,029.6,022.6,12.4,0000.0,0011.46,0005.97,0005.45
2024-01-03 07:15:00,SystemResetWarning,0829.7,5.00,000.00,021.2,020.1,000.0,029.6,022.6,12.5,0000.8,0012.28,0006.05,0005.51
2024-01-03 07:16:00,SystemResetWarning,0829.6,5.00,000.00,021.2,020.1,000.0,029.6,022.6,12.5,0000.0,0012.92,0006.21,0005.60
2024-01-03 07:17:00,SystemResetWarning,0829.6,5.00,000.00,021.2,020.1,000.0,029.6,022.6,12.3,0000.4,0013.13,0006.32,0005.68
2024-01-03 07:18:00,SystemResetWarning,0829.6,4.99,000.00,021.2,020.1,000.0,029.6,022.6,12.1,0005.2,0013.03,0006.28,0005.63
2024-01-03 07:19:00,SystemResetWarning,0829.6,5.00,000.00,021.2,020.1,000.0,029.6,022.6,11.8,0005.0,0013.15,0006.20,0005.55
2024-01-03 07:20:00,SystemResetWarning,0829.7,4.99,000.00,021.2,020.0,000.0,029.6,022.6,11.8,0004.1,0012.52,0006.09,0005.48
2024-01-03 07:21:00,SystemResetWarning,0829.6,4.99,000.00,021.2,020.0,000.0,029.6,022.6,11.9,0002.8,0011.91,0005.98,0005.40
2024-01-03 07:22:00,SystemResetWarning,0829.6,4.99,000.00,021.2,020.0,000.0,029.6,022.5,12.0,0000.9,0012.01,0006.04,0005.44
2024-01-03 07:23:00,SystemResetWarning,0829.6,5.00,000.00,021.2,020.0,000.0,029.6,022.5,12.1,0004.0,0012.40,0006.15,0005.50
2024-01-03 07:24:00,SystemResetWarning,0829.6,5.01,000.00,021.2,020.0,000.0,029.6,022.5,12.0,0004.9,0012.42,0006.16,0005.51
2024-01-03 07:25:00,SystemResetWarning,0829.5,5.01,000.00,021.2,020.0,000.0,029.5,022.5,12.0,0004.7,0012.33,0006.11,0005.45
2024-01-03 07:26:00,SystemResetWarning,0829.6,5.00,000.00,021.2,020.0,000.0,029.5,022.6,12.2,0000.7,0011.34,0005.97,0005.34
2024-01-03 07:27:00,SystemResetWarning,0829.6,5.00,000.00,021.2,020.0,000.0,029.5,022.6,12.0,0000.7,0011.43,0005.73,0005.17
2024-01-03 07:28:00,SystemResetWarning,0829.6,4.99,000.00,021.2,020.0,000.0,029.5,022.5,12.2,0002.9,0011.05,0005.51,0004.97
2024-01-03 07:29:00,SystemResetWarning,0829.6,5.00,000.00,021.1,020.0,000.0,029.5,022.5,12.0,0000.0,0010.68,0005.30,0004.80
2024-01-03 07:30:00,SystemResetWarning,0829.6,4.99,000.00,021.1,020.0,000.0,029.5,022.5,12.1,0000.0,0010.13,0005.11,0004.63
2024-01-03 07:31:00,SystemResetWarning,0829.7,5.01,000.00,021.1,020.0,000.0,029.5,022.5,12.1,0000.0,0009.81,0004.93,0004.45
2024-01-03 07:32:00,SystemResetWarning,0829.6,5.00,000.00,021.1,019.9,000.0,029.5,022.4,11.9,0000.0,0009.76,0004.77,0004.28
2024-01-03 07:33:00,SystemResetWarning,0829.6,5.00,000.00,021.1,019.9,000.0,029.5,022.4,12.1,0000.0,0009.35,0004.64,0004.16
2024-01-03 07:34:00,SystemResetWarning,0829.5,5.00,000.00,021.1,019.9,000.0,029.5,022.4,12.4,0000.0,0009.27,0004.55,0004.10
2024-01-03 07:35:00,SystemResetWarning,0829.5,4.99,000.00,021.1,019.9,000.0,029.5,022.4,12.8,0000.0,0009.18,0004.44,0004.02
2024-01-03 07:36:00,SystemResetWarning,0829.5,5.00,000.00,021.1,019.9,000.0,029.5,022.4,12.9,0000.0,0008.94,0004.36,0003.95
2024-01-03 07:37:00,SystemResetWarning,0829.5,4.99,000.00,021.1,020.0,000.0,029.5,022.5,12.9,0000.0,0009.05,0004.31,0003.92
2024-01-03 07:38:00,SystemResetWarning,0829.6,5.00,000.00,021.1,020.0,000.0,029.5,022.5,12.8,0000.0,0008.52,0004.34,0003.94
2024-01-03 07:39:00,SystemResetWarning,0829.6,5.01,000.00,021.1,019.9,000.0,029.5,022.4,12.7,0000.0,0008.73,0004.31,0003.93
2024-01-03 07:40:00,SystemResetWarning,0829.6,5.01,000.00,021.1,019.9,000.0,029.4,022.4,12.6,0000.0,0008.73,0004.32,0003.94
2024-01-03 07:41:00,SystemResetWarning,0829.6,5.00,000.00,021.1,019.9,000.0,029.4,022.4,12.5,0000.0,0008.78,0004.35,0003.98
2024-01-03 07:42:00,SystemResetWarning,0829.6,5.00,000.00,021.0,019.9,000.0,029.4,022.4,12.5,0000.0,0008.74,0004.43,0004.06
2024-01-03 07:43:00,SystemResetWarning,0829.5,5.00,000.00,021.0,019.9,000.0,029.4,022.4,12.6,0000.0,0008.70,0004.52,0004.15
2024-01-03 07:44:00,SystemResetWarning,0829.4,4.99,000.00,021.0,019.9,000.0,029.4,022.4,12.7,0000.0,0008.73,0004.52,0004.17
2024-01-03 07:45:00,SystemResetWarning,0829.4,4.99,000.00,021.0,019.9,000.0,029.4,022.4,12.8,0000.0,0009.30,0004.53,0004.16
2024-01-03 07:46:00,SystemResetWarning,0829.5,5.01,000.00,021.0,019.9,000.0,029.4,022.4,12.8,0000.0,0009.50,0004.59,0004.22
2024-01-03 07:47:00,SystemResetWarning,0829.5,5.01,000.00,021.0,020.0,000.0,029.4,022.4,12.8,0000.0,0010.73,0004.74,0004.33
2024-01-03 07:48:00,SystemResetWarning,0829.5,5.01,000.00,021.1,020.0,000.0,029.4,022.5,12.8,0000.0,0011.25,0004.93,0004.48
2024-01-03 07:49:00,SystemResetWarning,0829.5,5.00,000.00,021.1,020.0,000.0,029.4,022.4,12.9,0000.0,0011.41,0005.01,0004.57
2024-01-03 07:50:00,SystemResetWarning,0829.6,5.00,000.00,021.1,020.1,000.0,029.4,022.5,12.8,0000.0,0010.86,0005.08,0004.66
2024-01-03 07:51:00,SystemResetWarning,0829.6,5.00,000.00,021.1,020.1,000.0,029.4,022.5,12.7,0000.0,0011.06,0005.20,0004.75
2024-01-03 07:52:00,SystemResetWarning,0829.6,5.00,000.00,021.1,020.0,000.0,029.4,022.4,12.7,0000.0,0011.63,0005.30,0004.83
2024-01-03 07:53:00,SystemResetWarning,0829.6,5.00,000.00,021.1,020.0,000.0,029.4,022.4,12.6,0000.0,0012.01,0005.37,0004.89
2024-01-03 07:54:00,SystemResetWarning,0829.6,5.00,000.00,021.0,020.0,000.0,029.4,022.4,12.6,0000.0,0012.78,0005.44,0004.93
2024-01-03 07:55:00,SystemResetWarning,0829.6,4.99,000.00,021.0,020.0,000.0,029.4,022.3,12.4,0000.0,0013.06,0005.57,0005.02
2024-01-03 07:56:00,SystemResetWarning,0829.6,4.99,000.00,021.0,019.9,000.0,029.4,022.3,12.4,0000.0,0012.74,0005.64,0005.13
2024-01-03 07:57:00,SystemResetWarning,0829.6,5.00,000.00,021.0,019.9,000.0,029.4,022.3,12.4,0000.0,0012.90,0005.70,0005.20
2024-01-03 07:58:00,SystemResetWarning,0829.7,4.99,000.00,021.0,019.9,000.0,029.4,022.4,12.4,0000.0,0012.14,0005.71,0005.21
2024-01-03 07:59:00,SystemResetWarning,0829.6,5.01,000.00,021.0,019.8,000.0,029.4,022.3,12.4,0000.0,0011.51,0005.66,0005.19
